Home   Weather   36°10'N, 95°55'W   Past weeks
Flag for USA

Past Weather in 36°10'N, 95°55'W, USA — Yesterday and Last 2 Weeks

Now
51 °F

Clear.


Feels Like: 51 °F
Forecast: 76 / 48 °F
Wind: No wind

Location: Tulsa International Airport

Current Time: Oct 14, 2019 at 3:21:35 am

Latest Report: Oct 14, 2019 at 2:53 am


Visibility: 10 mi

Pressure: 29.99 "Hg

Humidity: 83%

Dew Point: 46 °F

Location of 36°10'N, 95°55'WLocation

Past Weather in 36°10'N, 95°55'W — Graph

°F

36°10'N, 95°55'W Temperature Yesterday

Maximum temperature yesterday: 73 °F (at 3:53 pm)
Minimum temperature yesterday: 43 °F (at 3:53 am)
Average temperature yesterday: 57 °F

High & Low Weather Summary for the Past Weeks

 TemperatureHumidityPressure
High92 °F (Oct 2, 2:53 pm)100% (Oct 6, 6:53 am)30.32 "Hg (Oct 6, 6:53 am)
Low35 °F (Oct 12, 4:53 am)26% (Oct 12, 3:53 pm)29.72 "Hg (Oct 10, 4:53 am)
Average66 °F72%30.02 "Hg
* Reported Sep 29 1:53 am — Oct 14 1:53 am, 36°10'N, 95°55'W. Weather by CustomWeather, © 2019

Note: Actual official high and low records may vary slightly from our data, if they occured in-between our weather recording intervals... More about our weather records

Advertising

36°10'N, 95°55'W Weather History for the Previous 24 Hours

Scroll right to see more
 ConditionsComfort  
Time TempWeatherWind HumidityBarometerVisibility
1:53 am
Mon, Oct 14
52 °FClear.No wind80%29.99 "Hg10 mi
12:53 am53 °FClear.No wind77%29.99 "Hg10 mi
11:53 pm
Sun, Oct 13
54 °FClear.No wind74%30.00 "Hg10 mi
10:53 pm58 °FClear.5 mph62%29.99 "Hg10 mi
9:53 pm59 °FClear.6 mph58%29.98 "Hg10 mi
8:53 pm62 °FClear.6 mph50%29.97 "Hg10 mi
7:53 pm62 °FClear.5 mph52%29.96 "Hg10 mi
6:53 pm64 °FClear.6 mph52%29.94 "Hg10 mi
5:53 pm72 °FSunny.8 mph34%29.93 "Hg10 mi
4:53 pm73 °FPassing clouds.10 mph33%29.92 "Hg10 mi
3:53 pm73 °FSunny.9 mph32%29.93 "Hg10 mi
2:53 pm72 °FSunny.9 mph34%29.94 "Hg10 mi
1:53 pm70 °FSunny.9 mph35%29.96 "Hg10 mi
12:53 pm68 °FSunny.9 mph38%29.99 "Hg10 mi
11:53 am64 °FSunny.9 mph43%30.01 "Hg10 mi
10:53 am60 °FSunny.10 mph46%30.02 "Hg10 mi
9:53 am55 °FSunny.9 mph51%30.02 "Hg10 mi
8:53 am49 °FSunny.7 mph64%30.01 "Hg10 mi
7:53 am44 °FSunny.8 mph71%29.99 "Hg10 mi
6:53 am43 °FClear.3 mph74%29.99 "Hg10 mi
5:53 am45 °FClear.7 mph68%29.98 "Hg10 mi
4:53 am45 °FClear.8 mph68%29.97 "Hg10 mi
3:53 am43 °FClear.5 mph74%29.98 "Hg10 mi
Weather by CustomWeather, © 2019

See weather overview